Weather History for Cherry Point, NC

Change the Weather History Date:

Friday, April 26, 2013

  Actual Average Record
Temperature  
Mean Temperature 57 °F -  
Max Temperature 68 °F 71 °F 82 °F (2007)
Min Temperature 46 °F 51 °F 44 °F (1997)
Degree Days  
Heating Degree Days 8    
Growing Degree Days 7 (Base 50)    
Moisture  
Dew Point 41 °F    
Average Humidity 57    
Maximum Humidity 86    
Minimum Humidity 23    
Precipitation  
Precipitation 0.00 in - - ()
Sea Level Pressure  
Sea Level Pressure 30.35 in    
Wind  
Wind Speed 5 mph ()    
Max Wind Speed 14 mph    
Max Gust Speed 20 mph    
Visibility 10.0 miles    
Events      
Averages and records for this station are not official NWS values.
T = Trace of Precipitation, MM = Missing Value Source: Averaged Metar Reports

Daily Weather History Graph

Daily Weather History Graph

Search for Another Location

Airport:

Trip Planner

Search our weather history database for the weather conditions in past years. The results will help you decide how hot, cold, wet, or windy it might be!

Date:

Astronomy

Apr. 26, 2013 Rise Set
Actual Time 6:22 AM EDT 7:48 PM EDT
Civil Twilight 5:55 AM EDT 8:15 PM EDT
Nautical Twilight 5:23 AM EDT 8:47 PM EDT
Astronomical Twilight 4:50 AM EDT 9:21 PM EDT
Moon 9:06 PM EDT (4/26) 6:49 AM EDT (4/26)
Length of Visible Light 14h 20m
Length of Day
13h 26m
Full, 99% of the Moon is Illuminated
Apr 26
Full
May 2
Last Quarter
May 9
New
May 18
First Quarter
May 25
Full

Hourly Weather History & Observations

Time (EDT) Temp. Dew Point Humidity Pressure Visibility Wind Dir Wind Speed Gust Speed Precip Events Conditions
12:54 AM 51.1 °F 42.1 °F 71% 30.28 in 10.0 mi NE 9.2 mph - N/A   Clear
1:54 AM 50.0 °F 41.0 °F 71% 30.28 in 10.0 mi NNE 5.8 mph - N/A   Clear
2:54 AM 51.1 °F 42.1 °F 71% 30.28 in 10.0 mi Calm Calm - N/A   Clear
3:54 AM 48.9 °F 42.1 °F 77% 30.28 in 10.0 mi Calm Calm - N/A   Clear
4:54 AM 48.0 °F 43.0 °F 83% 30.29 in 10.0 mi Calm Calm - N/A   Clear
5:54 AM 46.0 °F 42.1 °F 86% 30.31 in 10.0 mi Calm Calm - N/A   Clear
6:54 AM 48.0 °F 44.1 °F 86% 30.33 in 10.0 mi North 5.8 mph - N/A   Clear
7:54 AM 55.0 °F 48.0 °F 77% 30.35 in 10.0 mi NNE 6.9 mph - N/A   Clear
8:54 AM 57.9 °F 46.0 °F 65% 30.37 in 10.0 mi NNE 9.2 mph - N/A   Clear
9:54 AM 60.1 °F 41.0 °F 49% 30.39 in 10.0 mi NE 10.4 mph - N/A   Clear
10:54 AM 64.0 °F 39.9 °F 41% 30.41 in 10.0 mi NE 10.4 mph - N/A   Clear
11:54 AM 66.0 °F 41.0 °F 40% 30.40 in 10.0 mi East 10.4 mph - N/A   Clear
12:54 PM 66.0 °F 41.0 °F 40% 30.38 in 10.0 mi East 10.4 mph - N/A   Clear
1:54 PM 66.9 °F 37.0 °F 33% 30.38 in 10.0 mi ENE 11.5 mph - N/A   Clear
2:54 PM 68.0 °F 37.9 °F 33% 30.38 in 10.0 mi NE 12.7 mph 19.6 mph N/A   Clear
3:54 PM 66.9 °F 37.0 °F 33% 30.37 in 10.0 mi NE 9.2 mph - N/A   Clear
4:54 PM 66.9 °F 28.0 °F 23% 30.36 in 10.0 mi ENE 13.8 mph - N/A   Clear
5:54 PM 66.0 °F 37.0 °F 34% 30.35 in 10.0 mi ENE 11.5 mph - N/A   Mostly Cloudy
6:54 PM 62.1 °F 32.0 °F 32% 30.35 in 10.0 mi East 8.1 mph - N/A   Mostly Cloudy
7:54 PM 57.9 °F 37.9 °F 47% 30.36 in 10.0 mi East 5.8 mph - N/A   Clear
8:54 PM 55.9 °F 41.0 °F 57% 30.38 in 10.0 mi East 4.6 mph - N/A   Clear
9:54 PM 54.0 °F 43.0 °F 66% 30.40 in 10.0 mi Calm Calm - N/A   Clear
10:54 PM 52.0 °F 44.1 °F 74% 30.41 in 10.0 mi Calm Calm - N/A   Scattered Clouds
11:54 PM 51.1 °F 45.0 °F 80% 30.40 in 10.0 mi Calm Calm - N/A   Partly Cloudy